User: anonymous
Location: Coffee Creek Observatory
(38.8077°N, 94.7179°W)
Time: 22:32:50
(UTC-05:00)
Language:

Lacrosse 4 Rocket - Orbit

View from above orbital plane
View from above orbital plane
View from above satellite
View from above satellite

Ground track
Ground track

The orbit data is extracted from the following two-line orbital elements,

1 26474U 00047B   14234.36550997  .00001049  00000-0  10869-3 0  7092
2 26474 067.9965 161.4501 0059942 009.2177 351.0048 14.92997578761488
Epoch (UTC): 22 August 2014 08:46:20
Eccentricity: 0.0059942
inclination: 67.9965°
perigee height: 547 km
apogee height: 630 km
right ascension of ascending node: 161.4501°
argument of perigee: 9.2177°
revolutions per day: 14.92997578
mean anomaly at epoch: 351.0048°
orbit number at epoch: 76148

The dashed part of the orbit path shows where the satellite is in the earth's shadow,  

DLR